This demonstration page uses our WeatherBlox Daily Observations layout. Learn more.

41.55636, -103.73856

Hourly Observations for August 29, 2018

Temp ( °F °C ) Dew Point ( °F °C ) Humidity (%) Winds ( mph kmh ) Pressure ( in mb ) Visibility ( mi km ) Precip ( " mm )
12:58 am 00:58 Clear 49 9.7 44 6.5 81 81 S 8 13 30.09 1019 10 16.09344 0 0
1:58 am 01:58 Clear 50 10 45 7.2 83 83 S 10 17 30.09 1019 10 16.09344 0 0
2:58 am 02:58 Clear 49 9.3 45 7 86 86 S 9 15 30.09 1019 10 16.09344 0 0
3:58 am 03:58 Clear 48 8.7 44 6.8 88 88 SSW 10 17 30.09 1019 10 16.09344 0 0
4:58 am 04:58 Clear 49 9.3 45 7.2 87 87 SSW 12 19 30.09 1019 10 16.09344 0 0
5:58 am 05:58 Clear 47 8.4 44 6.6 89 89 SW 12 19 30.09 1019 10 16.09344 0 0
6:58 am 06:58 Sunny 49 9.6 46 7.6 87 87 SSW 7 11 30.09 1019 10 16.09344 0 0
7:58 am 07:58 Sunny 55 13 50 10 82 82 SSW 9 15 30.06 1018 10 16.09344 0 0
8:58 am 08:58 Sunny 63 17.4 51 10.8 65 65 SSW 17 28 30.06 1018 10 16.09344 0 0
9:58 am 09:58 Sunny 68 20 52 11 56 56 SW 16 26 30.03 1017 10 16.09344 0 0
10:58 am 10:58 Sunny 72 22.2 52 11.2 50 50 SSW 16 26 30.03 1017 10 16.09344 0 0
11:58 am 11:58 Sunny 76 24.7 51 10.7 41 41 SSW 14 22 29.97 1015 10 16.09344 0 0
12:58 pm 12:58 Sunny 79 26.3 50 10.2 36 36 S 15 24 29.97 1015 10 16.09344 0 0
1:58 pm 13:58 Sunny 82 27.5 46 8 29 29 S 13 20 29.94 1014 10 16.09344 0 0
2:58 pm 14:58 Mostly Sunny 84 28.9 42 5.7 23 23 S 18 30 29.88 1012 10 16.09344 0 0
3:58 pm 15:58 Mostly Cloudy 72 22.2 47 8.5 42 42 N 14 22 29.97 1015 10 16.09344 0 0
4:58 pm 16:58 Mostly Sunny 82 27.5 45 7.1 27 27 ENE 5 7 29.88 1012 10 16.09344 0 0
5:58 pm 17:58 Mostly Cloudy 74 23.6 51 10.6 44 44 SE 18 30 29.94 1014 10 16.09344 0 0
6:58 pm 18:58 Partly Cloudy 69 20.7 53 11.7 56 56 SSE 13 20 29.94 1014 10 16.09344 0 0
7:58 pm 19:58 Mostly Cloudy 69 20.5 53 11.5 56 56 SSE 13 20 29.94 1014 10 16.09344 0 0
8:58 pm 20:58 Mostly Clear 68 20 52 11.2 57 57 SSE 12 19 29.94 1014 10 16.09344 0 0
9:58 pm 21:58 Clear 66 18.9 52 11.3 62 62 SSE 14 22 29.94 1014 10 16.09344 0 0
10:58 pm 22:58 Clear 62 16.9 53 11.5 71 71 S 10 17 29.94 1014 10 16.09344 0 0
11:58 pm 23:58 Clear 61 16.3 53 11.7 74 74 SSW 12 19 29.94 1014 10 16.09344 0 0

Powered by AerisWeather